K7OLI-13 Weather Reports


time (UTC)temp
C
wind
direction
speed
KPH
gust
KPH
rain 1hr
cm
rain 24hr
cm
rain mn
cm
humidity
%
barometer
mb
20260905101550 12 45 0.0 3.2 0.00 0.15 0.00 99
20260905100519 12 0.0 0.0 0.00 0.15 0.00 99
20260905095548 12 0.0 0.0 0.00 0.18 0.00 99
20260905094535 12 0.0 0.0 0.00 0.18 0.00 99
20260905093527 12 0.0 0.0 0.00 0.18 0.00 99
20260905092533 12 0.0 0.0 0.00 0.18 0.00 99
20260905091522 12 0.0 0.0 0.00 0.20 0.00 99
20260905090530 12 0.0 0.0 0.00 0.23 0.00 99
20260905085521 12 0.0 0.0 0.00 0.28 0.00 99
20260905084548 12 0.0 0.0 0.00 0.30 0.00 98
20260905083556 12 0.0 0.0 0.00 0.36 0.00 98
20260905082527 12 0.0 0.0 0.00 0.38 0.00 98
20260905081533 13 45 3.2 3.2 0.00 0.41 0.00 98
20260905080542 13 45 3.2 4.8 0.00 0.41 0.00 97
20260905075551 13 42 4.8 6.4 0.00 0.41 0.00 97
20260905074520 13 53 4.8 4.8 0.00 0.41 0.00 97
20260905073548 13 61 3.2 4.8 0.00 0.41 0.00 97
20260905072556 13 57 4.8 6.4 0.00 0.41 0.00 97
20260905071527 13 46 4.8 6.4 0.00 0.41 0.00 96
20260905070536 13 47 4.8 6.4 0.00 0.41 0.00 96
20260905065521 13 48 4.8 6.4 0.00 0.41 0.41 95
20260905064530 13 50 4.8 6.4 0.00 0.41 0.41 95
20260905063519 13 77 3.2 4.8 0.00 0.41 0.41 94
20260905062546 13 62 3.2 4.8 0.00 0.41 0.41 93
20260905061535 13 59 4.8 6.4 0.00 0.41 0.41 93
20260905060527 13 90 0.0 3.2 0.00 0.41 0.41 92
20260905055535 13 42 3.2 4.8 0.00 0.41 0.41 92
20260905054542 13 42 4.8 8.0 0.00 0.41 0.41 92
20260905053530 13 48 4.8 8.0 0.00 0.41 0.41 93
20260905052520 13 34 4.8 6.4 0.00 0.41 0.41 93
20260905051528 13 46 3.2 4.8 0.00 0.41 0.41 92
20260905050556 13 39 3.2 4.8 0.00 0.41 0.41 93
20260905045550 13 42 1.6 3.2 0.00 0.41 0.41 94
20260905044535 13 23 3.2 3.2 0.00 0.41 0.41 94
20260905043522 12 0.0 0.0 0.00 0.41 0.41 95
20260905042531 13 0.0 0.0 0.00 0.41 0.41 95
20260905041520 13 0.0 0.0 0.00 0.41 0.41 94
20260905040528 13 151 1.6 4.8 0.00 0.41 0.41 93
20260905035556 13 158 3.2 6.4 0.00 0.41 0.41 93
20260905034608 13 0.0 1.6 0.00 0.41 0.41 91
20260905033533 14 158 0.0 4.8 0.00 0.41 0.41 91
20260905032523 14 163 3.2 4.8 0.00 0.43 0.41 90
20260905031531 14 156 4.8 6.4 0.00 0.43 0.41 89
20260905030520 14 105 4.8 6.4 0.00 0.43 0.41 88
20260905025527 14 98 6.4 9.7 0.00 0.43 0.41 88
20260905024536 15 101 8.0 14.5 0.00 0.48 0.41 87
20260905023547 15 94 6.4 8.0 0.00 0.56 0.41 86
20260905022533 15 93 8.0 11.3 0.00 0.61 0.41 85
20260905021542 15 102 8.0 9.7 0.00 0.61 0.41 82
20260905020530 15 85 8.0 16.1 0.00 0.61 0.41 80
20260905015520 15 92 9.7 19.3 0.00 0.61 0.41 79
20260905014548 16 82 9.7 12.9 0.00 0.61 0.41 81
20260905013555 16 59 14.5 19.3 0.00 0.61 0.41 79
20260905012544 16 51 12.9 19.3 0.00 0.61 0.41 79
20260905011533 16 44 12.9 14.5 0.00 0.61 0.41 82
20260905010542 17 50 12.9 14.5 0.00 0.64 0.41 82
20260905005550 17 52 11.3 14.5 0.00 0.64 0.41 80
20260905004542 17 34 11.3 12.9 0.00 0.64 0.41 80
20260905003527 17 19 9.7 11.3 0.00 0.64 0.41 84
20260905002534 16 52 8.0 9.7 0.00 0.64 0.41 85
20260905001524 16 36 8.0 11.3 0.00 0.64 0.41 83
20260905000531 16 47 8.0 11.3 0.00 0.66 0.41 79
20260904235521 16 35 8.0 11.3 0.00 0.66 0.41 80
20260904234530 16 23 8.0 9.7 0.00 0.66 0.41 81
20260904233536 16 60 9.7 12.9 0.00 0.66 0.41 80
20260904232528 17 38 11.3 12.9 0.00 0.66 0.41 78
20260904231533 18 61 9.7 12.9 0.00 0.66 0.41 74
20260904230547 18 62 6.4 11.3 0.00 0.69 0.41 74
20260904225550 17 91 6.4 8.0 0.00 0.71 0.41 75
20260904224520 17 81 4.8 6.4 0.00 0.74 0.41 78
20260904223527 17 99 1.6 4.8 0.00 0.76 0.41 79
20260904222536 16 187 1.6 4.8 0.00 0.76 0.41 82
20260904221548 16 115 1.6 4.8 0.00 0.76 0.41 83
20260904220556 16 178 4.8 6.4 0.00 0.76 0.41 82
20260904215523 16 161 3.2 4.8 0.00 0.81 0.41 84
20260904214531 16 167 6.4 8.0 0.00 0.86 0.41 81
20260904213520 16 162 6.4 11.3 0.00 0.99 0.41 82
20260904212548 16 150 8.0 11.3 0.00 1.02 0.41 81
20260904211535 17 181 14.5 19.3 0.00 1.02 0.41 77
20260904210527 18 94 14.5 16.1 0.00 1.02 0.41 64
20260904205541 18 144 9.7 14.5 0.00 1.02 0.41 66
20260904204522 18 103 8.0 9.7 0.00 1.02 0.41 67
20260904203530 18 92 6.4 9.7 0.00 1.02 0.41 67
20260904202519 18 161 4.8 9.7 0.00 1.02 0.41 69
20260904201527 17 65 6.4 11.3 0.00 1.02 0.41 76
20260904200535 17 54 4.8 9.7 0.00 1.02 0.41 76
20260904195527 17 75 4.8 6.4 0.00 1.02 0.41 79
20260904194556 17 65 3.2 4.8 0.00 1.02 0.41 81
20260904193522 16 169 1.6 4.8 0.00 1.02 0.41 84
20260904192550 16 12 3.2 6.4 0.00 1.02 0.41 85
20260904191520 16 80 6.4 8.0 0.00 1.02 0.41 81
20260904190546 17 203 4.8 8.0 0.00 1.02 0.41 79
20260904185536 17 289 3.2 4.8 0.00 1.02 0.41 77
20260904184524 17 53 6.4 8.0 0.00 1.02 0.41 80
20260904183533 17 54 4.8 6.4 0.00 1.02 0.41 79
20260904182521 16 43 3.2 6.4 0.00 1.02 0.41 81
20260904181530 16 8 6.4 8.0 0.00 1.02 0.41 82
20260904180519 16 7 3.2 6.4 0.00 1.02 0.41 83
20260904175527 16 338 1.6 4.8 0.00 1.02 0.41 85
20260904174536 16 298 1.6 6.4 0.00 1.02 0.41 83
20260904173524 16 7 3.2 6.4 0.00 1.02 0.41 81
20260904172533 16 74 1.6 4.8 0.00 1.02 0.41 81
20260904171602 16 113 1.6 3.2 0.00 1.09 0.41 83
20260904170530 16 20 1.6 3.2 0.00 1.14 0.41 84
20260904165520 16 349 0.0 4.8 0.00 1.17 0.41 85
20260904164527 16 311 3.2 6.4 0.00 1.19 0.41 87
20260904163558 15 8 3.2 4.8 0.00 1.19 0.41 88
20260904162527 15 3 4.8 6.4 0.00 1.19 0.41 88
20260904161532 15 61 3.2 6.4 0.00 1.19 0.41 89
20260904160522 15 351 4.8 9.7 0.05 1.22 0.41 92
20260904155550 13 24 6.4 8.0 0.08 1.22 0.41 96
20260904154519 13 45 4.8 9.7 0.08 1.22 0.41 98
20260904153527 12 24 6.4 8.0 0.08 1.22 0.41 99
20260904152535 12 353 3.2 4.8 0.08 1.22 0.41 99
20260904151524 12 304 1.6 4.8 0.08 1.22 0.41 99
20260904150556 12 296 1.6 4.8 0.03 1.17 0.36 99
20260904145522 12 256 1.6 3.2 0.00 1.14 0.33 99
20260904144530 12 158 0.0 3.2 0.03 1.14 0.33 99
20260904143520 12 292 1.6 4.8 0.03 1.14 0.33 99
20260904142527 12 250 1.6 4.8 0.03 1.14 0.33 99
20260904141535 11 8 1.6 4.8 0.03 1.14 0.33 99
20260904140527 11 0.0 0.0 0.03 1.14 0.33 99
20260904135536 11 0.0 0.0 0.03 1.19 0.33 99
20260904134522 11 0.0 0.0 0.00 1.19 0.30 99
20260904133532 11 0.0 0.0 0.00 1.22 0.30 99
20260904132540 11 0.0 0.0 0.00 1.27 0.30 99
20260904131549 11 0.0 0.0 0.00 1.30 0.30 99
20260904130536 11 0.0 0.0 0.00 1.30 0.30 99
20260904125527 11 0.0 0.0 0.00 1.30 0.30 99
20260904124537 11 0.0 0.0 0.00 1.30 0.30 99
20260904123523 11 0.0 0.0 0.00 1.30 0.30 99
20260904122531 11 0.0 0.0 0.00 1.30 0.30 99
20260904121521 11 286 1.6 3.2 0.00 1.30 0.30 99
20260904120528 11 270 1.6 3.2 0.00 1.30 0.30 99
20260904115536 11 293 1.6 3.2 0.00 1.30 0.30 99
20260904114528 11 0.0 0.0 0.00 1.30 0.30 99
20260904113534 11 293 0.0 3.2 0.00 1.30 0.30 99
20260904112523 12 168 1.6 3.2 0.03 1.30 0.30 99
20260904111533 12 55 0.0 4.8 0.05 1.30 0.30 99
20260904110521 12 35 3.2 4.8 0.05 1.30 0.30 99
20260904105529 12 0.0 1.6 0.08 1.30 0.30 99
20260904104537 12 353 3.2 4.8 0.08 1.30 0.30 99
20260904103527 11 338 0.0 3.2 0.08 1.30 0.30 99
20260904102534 12 0.0 0.0 0.05 1.27 0.28 99